DECAYED

STARLINK-1483, 45743 (Decayed)

Orbit data source: Space-Track

STARLINK-1483, 45743 was a payload satellite owned by SpaceX/Seattle (US) in LEO that was launched on Sat, 13 Jun 2020 UTC via an FALCON 9 launch vehicle from the Air Force Eastern Test Range (AFETR). Payloads include a variety of satellites, spacecraft, and rockets equipped with specific instruments for various scientific and technological missions. These include communications satellites like Starlink; space stations such as the ISS; scientific satellites like the Hubble; Earth observation satellites from companies like Planet Labs, Umbra, and HawkEye 360; GPS; miniature CubeSats for education and research; and military/defense satellites.

Not visible in the next 10 days
STARLINK-1483 details
Identifier
45743, 2020-038P
Orbit
Decayed
Last TLE update5 days ago
Origin
Flag of USSpaceX/Seattle (US)
ManufacturerSpaceX/Seattle
MissionDecayed Commercial Communications
Bus & MotorSTARLINK, Unknown motor
Mass260 kg wet, ~248 kg dry
Launch date (UTC)
2020-06-13 (5 years ago)
Launch vehicle
FALCON 9
Launch site
Air Force Eastern Test Range (AFETR)
Object type
Payload
Rocket body
Debris
Shape & HBRBox + 1 Pan, 8.86 m
Radar Cross Section13.562 m², Large (>1 m²)

Expand to show TLE details & history

TLE from 5 days ago
0 STARLINK-1483
1 45743U 20038P   24356.51811432  .14234212  12477-4  33850-3 0  9997
2 45743  53.0105 331.2274 0003994 146.5353 317.7231 16.46121251251688
Epoch: 2024-12-21T12:26Z
Definitive object data (Epoch: 2024-12-21T12:26:05.077Z)
Latitude50.8938°
Longitude167.01454°
Altitude153.597 km
Speed7.822 km/s
True Right ascension05h 36m 24s
True Declination50° 42' 35"
Sunlit
Object was in full shadow at TLE epoch
Visualization observer readout
Observer readout values are unavailable because the object's trajectory could not be propagated. This is usually caused when the trajectory data is faulty or the object's orbit has decayed.
Visualization observer readout
Observer readout values are unavailable because the object's trajectory could not be propagated. This is usually caused when the trajectory data is faulty or the object's orbit has decayed.
Orbital elements
Apogee altitude152.471 km
Perigee altitude147.257 km
Semi-major axis6,528.001 km
Eccentricity0.0003994
Inclination53.0105°
RAAN331.2274°
Arg. of periapsis146.5353°
True anomaly317.6923°
Mean anomaly317.7231°
Eccentric anomaly317.7077°
Mean motion4.11503 °/min
BSTAR0.0003385
Orbital period87.48 mins
Loading maneuver chart data...

STARLINK-1483 Visibility forecast

Observer location: undefined°, undefined

This satellite is decayed
Span
Click to sort rows by Start time (UTC) header in descending order
Start Az.
Max El. time (UTC)
Max El. Az.
Max El.
End time (UTC)
End Az.
|